Vorticity
nan nan nan nan nan nan nan nan nan nan nan nan nan nan nan nan nan nan nan nan nan nan nan nan nan nan nan nan nan nan nan nan nan nan nan nan nan nan nan nan nan nan nan nan
nan 1 5 9 5 3 4 13 18 11 -0 8 16 15 23 16 9 7 5 4 3 5 1 2 7 10 11 10 9 9 8 9 9 7 8 7 7 7 7 7 8 7 10 nan
nan 5 7 6 5 6 13 17 3 -0 11 20 17 22 15 10 6 7 7 7 4 1 1 4 8 10 10 9 9 9 9 9 9 7 8 7 7 7 9 8 9 7 9 nan
nan 4 7 8 7 8 10 1 5 12 20 14 13 15 12 13 7 7 5 4 4 1 3 7 10 10 10 10 10 9 9 9 9 9 7 8 8 9 8 8 8 5 7 nan
nan 6 8 11 3 11 6 -3 15 23 13 11 15 9 12 8 7 3 6 6 2 3 5 8 10 10 11 11 10 11 10 9 9 10 8 9 7 7 5 8 9 8 7 nan
nan 10 8 5 7 10 8 20 26 19 12 8 5 7 11 5 7 5 4 4 2 6 8 9 10 12 13 11 10 10 9 11 10 10 10 8 7 5 6 8 9 8 8 nan
nan 12 6 5 19 5 4 23 23 13 7 9 -1 2 11 5 10 9 -1 -1 6 8 9 9 10 12 10 10 11 10 11 10 10 11 11 11 9 10 9 8 8 8 7 nan
nan 8 5 13 15 5 7 14 10 5 3 7 13 14 5 11 4 2 -7 1 11 8 8 8 11 11 10 11 10 10 11 11 12 11 11 10 10 9 11 9 7 7 6 nan
nan 10 7 7 5 12 11 10 12 14 10 12 14 6 6 8 -0 -9 -0 7 9 9 7 10 12 10 10 10 12 12 12 11 11 12 12 11 12 8 8 9 7 6 7 nan
nan 13 8 3 11 8 6 8 11 9 9 13 7 12 15 -2 4 -4 6 9 9 8 8 11 10 10 11 11 12 13 13 12 13 12 11 10 11 11 9 11 9 7 7 nan
nan 12 4 7 10 7 9 7 11 12 8 4 9 10 5 6 -5 -1 7 8 7 8 10 11 10 11 11 11 11 12 14 14 13 13 13 10 10 11 10 9 10 10 7 nan
nan 10 6 14 13 10 5 8 9 9 7 4 8 10 8 -9 -9 7 8 5 8 10 10 12 11 12 11 10 12 13 14 14 13 13 13 12 10 11 9 9 11 10 8 nan
nan 5 10 12 3 5 4 4 5 7 8 7 6 -0 -10 -8 8 6 5 7 10 10 13 12 14 11 10 13 13 13 13 14 14 13 13 13 11 10 10 10 11 8 8 nan
nan 8 9 -3 -7 1 7 8 10 7 5 12 -2 -8 -5 4 7 5 6 12 11 11 11 14 11 10 13 12 13 14 15 15 14 13 13 12 12 10 10 10 12 8 9 nan
nan 8 8 3 11 14 12 11 15 11 2 -3 1 9 7 10 6 7 11 9 9 12 11 10 11 12 13 14 14 16 17 15 14 13 12 12 12 11 11 10 11 10 9 nan
nan 4 9 22 24 10 12 17 15 10 9 3 4 9 11 6 6 8 9 9 12 8 8 11 12 13 15 16 16 17 17 16 14 12 12 12 13 11 11 11 11 9 9 nan
nan 5 14 16 2 13 25 20 12 5 3 5 8 9 6 5 8 8 9 16 8 7 12 12 14 16 15 14 17 19 19 16 13 12 11 12 13 11 10 11 11 10 10 nan
nan 9 10 5 10 16 16 14 12 8 4 14 12 7 3 9 9 14 18 7 6 10 13 16 16 12 13 17 20 22 20 16 13 11 10 14 13 11 10 11 9 10 12 nan
nan 7 10 12 14 14 13 5 5 12 18 24 10 2 8 13 18 17 7 4 11 12 16 15 12 13 17 19 23 26 21 16 12 11 12 14 11 11 11 9 6 8 10 nan
nan 10 6 7 11 13 13 3 7 15 15 -1 2 9 7 15 19 -2 -4 10 13 16 14 11 15 20 18 19 29 30 16 13 10 9 13 15 11 10 13 9 8 12 12 nan
nan 12 10 8 9 8 7 6 11 4 -0 1 10 10 12 14 4 -1 6 11 13 10 10 15 17 16 15 16 32 27 13 13 15 16 15 10 12 10 11 7 14 16 15 nan
nan 10 12 10 9 14 4 7 7 6 4 5 9 10 10 8 6 11 11 11 10 10 13 17 16 14 15 15 17 23 21 15 18 16 14 12 4 6 14 17 15 12 12 nan
nan 11 10 10 10 8 5 8 5 8 6 9 11 10 10 9 9 11 12 12 12 13 15 12 13 13 13 14 13 12 17 22 19 12 -1 3 13 22 17 15 9 9 9 nan
nan 12 5 9 7 -1 8 13 11 4 8 10 10 9 9 10 9 12 12 11 11 12 12 13 11 9 11 14 14 14 16 16 9 7 12 21 27 19 14 9 9 9 7 nan
nan 14 9 6 10 15 13 8 4 8 9 9 10 10 10 11 10 11 12 10 11 10 12 14 10 10 12 12 13 17 18 26 17 9 23 20 16 12 9 11 15 14 16 nan
nan nan nan nan nan nan nan nan nan nan nan nan nan nan nan nan nan nan nan nan nan nan nan nan nan nan nan nan nan nan nan nan nan nan nan nan nan nan nan nan nan nan nan nan
CAPE
0 0 0 0 0 0 0 0 0 0 0 0 0 0 0 0 0 0 0 0 0 0 0 0 0 0 0 0 0 0 0 0 0 0 0 3 2 12 3 11 7 3 3 2
0 0 0 0 0 0 0 0 0 0 0 0 0 0 0 0 0 0 0 0 0 0 0 0 0 0 0 0 0 0 0 0 0 0 0 0 5 4 9 12 5 4 5 2
0 0 0 0 0 0 0 0 0 0 0 0 0 0 0 0 0 0 0 0 0 0 0 0 0 0 0 0 0 0 0 0 0 0 0 0 2 11 7 7 9 2 3 2
0 0 0 0 0 0 0 0 0 0 0 4 0 0 0 0 0 0 0 0 0 0 1 0 0 0 0 0 0 0 0 0 0 0 0 0 0 4 7 16 9 4 1 5
0 0 0 0 0 0 0 0 0 0 0 0 0 0 0 0 0 0 0 0 0 0 0 0 0 1 2 1 0 1 0 0 0 0 0 0 0 5 13 11 11 3 2 3
0 0 0 0 0 0 0 0 0 0 0 1 0 0 0 0 0 0 0 0 0 0 0 0 1 0 5 4 8 9 2 2 0 0 0 0 0 1 6 13 12 4 2 3
0 0 0 0 0 0 0 0 0 0 5 1 0 0 0 0 0 0 0 0 0 0 0 1 3 10 9 8 10 7 2 6 0 1 2 0 0 0 3 9 25 3 3 2
0 0 0 0 0 0 1 1 1 0 0 0 0 0 0 0 0 0 0 0 0 0 0 1 6 12 12 5 11 2 3 7 6 1 5 4 1 5 3 10 24 8 3 1
0 0 0 0 0 0 0 0 0 6 1 2 0 0 0 0 0 0 0 0 0 0 0 1 5 12 18 10 6 7 6 8 16 10 8 6 1 2 3 8 22 20 4 0
0 0 0 0 0 0 0 0 1 2 3 0 0 0 0 0 0 0 0 0 0 0 1 0 4 9 17 14 18 26 18 17 14 18 10 6 3 6 5 12 25 25 6 1
0 0 0 0 0 0 0 0 0 0 1 4 2 0 0 0 0 0 0 0 1 3 1 1 13 16 22 19 26 28 20 16 17 18 20 10 7 4 7 14 25 24 10 1
0 2 0 0 0 0 0 1 1 5 0 2 18 6 0 0 0 0 0 0 0 1 4 11 23 25 25 37 20 24 31 27 24 24 24 12 14 14 11 9 24 12 11 1
0 1 0 0 0 0 1 0 0 1 7 1 21 1 0 0 0 0 0 0 1 3 6 15 20 29 42 30 34 29 24 19 22 21 31 15 12 13 12 8 18 12 11 0
1 1 0 0 0 0 0 0 1 5 6 0 5 0 0 0 0 0 0 0 2 3 2 8 28 34 42 37 35 23 14 15 21 22 24 21 12 13 10 11 23 10 11 1
0 0 0 0 0 0 0 0 0 0 0 0 0 0 0 0 0 0 1 1 2 1 2 11 15 20 29 33 34 18 12 10 16 16 23 22 19 15 15 6 22 9 12 1
0 0 0 0 0 0 0 0 0 0 0 0 0 0 0 0 0 0 0 1 1 0 4 6 13 23 18 23 22 16 11 6 8 17 15 23 25 20 14 8 23 9 17 1
0 0 0 0 0 0 0 0 0 0 0 0 2 0 0 0 1 0 0 1 0 0 0 1 7 6 8 12 13 16 4 4 5 18 19 16 19 17 12 12 19 14 13 4
0 0 0 0 0 0 0 0 0 0 0 0 0 0 0 0 1 1 0 0 0 0 0 1 2 1 9 7 10 8 3 4 8 16 21 21 17 17 12 7 23 22 11 10
0 0 0 0 0 0 0 0 0 0 0 0 0 0 0 0 8 0 0 0 0 0 0 0 0 5 4 8 8 15 9 5 5 8 20 23 12 14 1 8 14 17 2 2
0 0 0 0 0 0 0 0 0 0 0 0 0 0 0 2 4 0 0 1 0 0 0 0 3 2 2 4 4 21 14 7 6 0 28 30 12 3 6 0 10 15 11 2
0 0 0 0 0 0 0 0 0 0 0 0 0 0 1 5 5 3 1 1 0 0 0 1 0 0 0 2 0 4 8 0 0 45 40 17 3 4 10 0 19 14 1 0
0 0 0 0 0 0 0 0 0 0 0 0 0 0 3 3 2 3 3 1 0 0 0 0 0 0 0 1 2 2 2 36 30 14 7 0 2 2 10 16 3 0 0 0
0 0 0 0 0 0 0 0 0 0 0 0 0 1 4 7 5 6 5 2 0 0 0 0 0 0 0 0 3 2 1 0 0 0 0 0 3 0 43 0 0 0 0 0
0 0 0 0 0 0 0 0 0 0 0 0 0 1 4 7 5 6 4 2 1 0 0 0 0 0 0 0 1 1 1 0 0 0 0 0 5 0 0 0 0 0 0 0
0 0 0 0 0 0 0 0 0 0 0 0 0 0 4 5 4 6 5 3 2 0 0 0 0 0 0 0 0 0 0 0 0 0 1 0 0 0 0 0 0 0 0 0
0 0 0 0 0 0 0 0 0 0 0 0 0 2 0 3 5 6 3 4 2 0 0 0 0 0 0 0 0 0 1 0 0 0 0 0 0 0 0 0 0 1 0 0